Regional Weather Roundup
Issued by NWS State College, PA

Home | Current Version | Previous Version | Text Only | Print | Product List | Glossary On
Versions: 1 2 3 4 5 6 7 8 9 10 11 12 13 14 15 16 17 18 19 20 21 22 23 24 25 26 27 28 29 30 31 32 33 34 35 36 37 38 39 40 41 42 43 44 45 46 47 48 49 50
000
ASUS41 KCTP 091903
RWRCTP

REGIONAL WEATHER ROUNDUP
NATIONAL WEATHER SERVICE STATE COLLEGE PA
200 PM EST FRI DEC 09 2016

Note: "fair" indicates few or no clouds below 12,000 feet with no
significant weather and/or obstructions to visibility.

* = STATION THAT DOES NOT REPORT PRECIPITATION /E.G. RAIN...SNOW...ETC/
    THUNDER OR FOG.

PAZ002>004-007>009-013>016-020>023-029>032-092000-
WESTERN PENNSYLVANIA

CITY           SKY/WX    TMP DP  RH WIND       PRES   REMARKS
ERIE           CLOUDY    33  18  53 W12G23    30.28S
MEADVILLE      LGT SNOW  25  21  85 W12       30.26F FOG     WCI  14
FRANKLIN*        N/A     25  18  74 W10       30.27S WCI  15
NEW CASTLE     CLOUDY    28  20  71 W14G22    30.33S
BEAVER COUNTY  NOT AVBL
BUTLER*        CLOUDY    27  18  69 W13G20    30.35R
PITTSBURGH INT CLOUDY    27  18  69 W8        30.34S
PITTSBURGH     CLOUDY    26  16  65 W14G20    30.33S WCI  14
INDIANA*       CLOUDY    27  19  74 W14       30.31S
LATROBE        CLOUDY    25  18  74 W14G25    30.34S WCI  13
WASHINGTON CO* CLOUDY    27  18  69 W12       30.36S
$$

PAZ004>006-010>012-017>019-024>028-033>037-041-042-045-046-049>053-092000-
CENTRAL PENNSYLVANIA

CITY           SKY/WX    TMP DP  RH WIND       PRES   REMARKS
BRADFORD       LGT SNOW  24  21  88 W8        30.15S VSB 3/4
DUBOIS         CLOUDY    26  18  71 W16       30.21R WCI  14
CLEARFIELD     FLURRIES  28  18  66 W13G18    30.22S
JOHNSTOWN      LGT SNOW  20  17  88 W15       30.21R FOG     WCI   6
ALTOONA        LGT SNOW  27  19  72 W14       30.26S
STATE COLLEGE  FLURRIES  30  19  64 W16G22    30.21F
WILLIAMSPORT   LGT SNOW  31  25  78 NW7       30.21R VSB 3/4
SELINSGROVE    PTSUNNY   33  21  61 W8G21     30.22S
FT INDIANTOWN  MOSUNNY   34  15  46 W16G29    30.21S
CAPITAL CITY   PTSUNNY   36  15  42 W22G32    30.26R
HARRISBURG     PTSUNNY   36  19  50 NW22G31   30.25R
YORK           MOSUNNY   34  18  52 W16G24    30.25R
$$

PAZ038>040-043-044-047-048-054-055-060>062-067>071-092000-
EASTERN PENNSYLVANIA

CITY           SKY/WX    TMP DP  RH WIND       PRES   REMARKS
SCRANTON       CLOUDY    33  13  43 NW12G24   30.13R
MOUNT POCONO   MIX PCPN  28  16  60 W18G31    30.04F
ALLENTOWN      CLOUDY    36  17  46 NW12G23   30.16S
QUAKERTOWN*    CLOUDY    36  18  48 W12G20    30.17S
READING        CLOUDY    36  16  44 W17G31    30.19S
LANCASTER      CLOUDY    36  18  48 W24G32    30.22S
COATESVILLE    MOCLDY    36  18  48 NW23      30.21R
POTTSTOWN      CLOUDY    34  17  50 W12G22    30.20S
BLUE BELL      CLOUDY    34  19  55 NW8G17    30.18S
DOYLESTOWN     CLOUDY    37  18  46 W18G25    30.16R
WILLOW GROVE   NOT AVBL
NORTH PHILA    CLOUDY    38  18  44 W15G23    30.20S
PHILADELPHIA   PTSUNNY   37  17  44 NW13G24   30.22R
$$




USA.gov is the U.S. government's official web portal to all federal, state and local government web resources and services.